Year,Month,Day,Hour,Minute,Value (Times are PST for temperature in C)
2016,07,26,00,00,14.80
2016,07,26,00,01,14.80
2016,07,26,00,02,14.80
2016,07,26,00,03,14.80
2016,07,26,00,04,14.80
2016,07,26,00,05,14.80
2016,07,26,00,06,14.80
2016,07,26,00,07,14.80
2016,07,26,00,08,14.70
2016,07,26,00,09,14.70
2016,07,26,00,10,14.70
2016,07,26,00,11,14.70
2016,07,26,00,12,14.70
2016,07,26,00,13,14.80
2016,07,26,00,14,14.80
2016,07,26,00,15,14.80
2016,07,26,00,16,14.80
2016,07,26,00,17,14.80
2016,07,26,00,18,14.80
2016,07,26,00,19,14.80
2016,07,26,00,20,14.80
2016,07,26,00,21,14.80
2016,07,26,00,22,14.80
2016,07,26,00,23,14.80
2016,07,26,00,24,14.80
2016,07,26,00,25,14.80
2016,07,26,00,26,14.80
2016,07,26,00,27,14.80
2016,07,26,00,28,14.80
2016,07,26,00,29,14.70
2016,07,26,00,30,14.70
2016,07,26,00,31,14.70
2016,07,26,00,32,14.70
2016,07,26,00,33,14.70
2016,07,26,00,34,14.70
2016,07,26,00,35,14.70
2016,07,26,00,36,14.70
2016,07,26,00,37,14.70
2016,07,26,00,38,14.70
2016,07,26,00,39,14.70
2016,07,26,00,40,14.70
2016,07,26,00,41,14.70
2016,07,26,00,42,14.70
2016,07,26,00,43,14.70
2016,07,26,00,44,14.70
2016,07,26,00,45,14.70
2016,07,26,00,46,14.60
2016,07,26,00,47,14.60
2016,07,26,00,48,14.60
2016,07,26,00,49,14.70
2016,07,26,00,50,14.70
2016,07,26,00,51,14.70
2016,07,26,00,52,14.70
2016,07,26,00,53,14.70
2016,07,26,00,54,14.70
2016,07,26,00,55,14.70
2016,07,26,00,56,14.70
2016,07,26,00,57,14.60
2016,07,26,00,58,14.60
2016,07,26,00,59,14.70
2016,07,26,01,00,14.70
2016,07,26,01,01,14.60
2016,07,26,01,02,14.60
2016,07,26,01,03,14.60
2016,07,26,01,04,14.60
2016,07,26,01,05,14.60
2016,07,26,01,06,14.60
2016,07,26,01,07,14.60
2016,07,26,01,08,14.60
2016,07,26,01,09,14.60
2016,07,26,01,10,14.60
2016,07,26,01,11,14.60
2016,07,26,01,12,14.60
2016,07,26,01,13,14.60
2016,07,26,01,14,14.60
2016,07,26,01,15,14.60
2016,07,26,01,16,14.60
2016,07,26,01,17,14.60
2016,07,26,01,18,14.60
2016,07,26,01,19,14.50
2016,07,26,01,20,14.50
2016,07,26,01,21,14.50
2016,07,26,01,22,14.50
2016,07,26,01,23,14.50
2016,07,26,01,24,14.50
2016,07,26,01,25,14.50
2016,07,26,01,26,14.50
2016,07,26,01,27,14.50
2016,07,26,01,28,14.50
2016,07,26,01,29,14.50
2016,07,26,01,30,14.50
2016,07,26,01,31,14.50
2016,07,26,01,32,14.50
2016,07,26,01,33,14.50
2016,07,26,01,34,14.50
2016,07,26,01,35,14.50
2016,07,26,01,36,14.40
2016,07,26,01,37,14.40
2016,07,26,01,38,14.40
2016,07,26,01,39,14.40
2016,07,26,01,40,14.50
2016,07,26,01,41,14.50
2016,07,26,01,42,14.40
2016,07,26,01,43,14.50
2016,07,26,01,44,14.50
2016,07,26,01,45,14.50
2016,07,26,01,46,14.50
2016,07,26,01,47,14.50
2016,07,26,01,48,14.50
2016,07,26,01,49,14.50
2016,07,26,01,50,14.50
2016,07,26,01,51,14.50
2016,07,26,01,52,14.50
2016,07,26,01,53,14.50
2016,07,26,01,54,14.50
2016,07,26,01,55,14.50
2016,07,26,01,56,14.50
2016,07,26,01,57,14.50
2016,07,26,01,58,14.50
2016,07,26,01,59,14.50
2016,07,26,02,00,14.50
2016,07,26,02,01,14.50
2016,07,26,02,02,14.50
2016,07,26,02,03,14.50
2016,07,26,02,04,14.50
2016,07,26,02,05,14.60
2016,07,26,02,06,14.60
2016,07,26,02,07,14.60
2016,07,26,02,08,14.60
2016,07,26,02,09,14.60
2016,07,26,02,10,14.60
2016,07,26,02,11,14.60
2016,07,26,02,12,14.60
2016,07,26,02,13,14.60
2016,07,26,02,14,14.60
2016,07,26,02,15,14.60
2016,07,26,02,16,14.60
2016,07,26,02,17,14.60
2016,07,26,02,18,14.60
2016,07,26,02,19,14.60
2016,07,26,02,20,14.60
2016,07,26,02,21,14.60
2016,07,26,02,22,14.60
2016,07,26,02,23,14.60
2016,07,26,02,24,14.60
2016,07,26,02,25,14.60
2016,07,26,02,26,14.60
2016,07,26,02,27,14.50
2016,07,26,02,28,14.50
2016,07,26,02,29,14.50
2016,07,26,02,30,14.50
2016,07,26,02,31,14.50
2016,07,26,02,32,14.50
2016,07,26,02,33,14.50
2016,07,26,02,34,14.50
2016,07,26,02,35,14.50
2016,07,26,02,36,14.50
2016,07,26,02,37,14.50
2016,07,26,02,38,14.50
2016,07,26,02,39,14.50
2016,07,26,02,40,14.50
2016,07,26,02,41,14.50
2016,07,26,02,42,14.50
2016,07,26,02,43,14.50
2016,07,26,02,44,14.50
2016,07,26,02,45,14.50
2016,07,26,02,46,14.50
2016,07,26,02,47,14.50
2016,07,26,02,48,14.50
2016,07,26,02,49,14.50
2016,07,26,02,50,14.50
2016,07,26,02,51,14.50
2016,07,26,02,52,14.50
2016,07,26,02,53,14.50
2016,07,26,02,54,14.50
2016,07,26,02,55,14.50
2016,07,26,02,56,14.50
2016,07,26,02,57,14.50
2016,07,26,02,58,14.50
2016,07,26,02,59,14.50
2016,07,26,03,00,14.50
2016,07,26,03,01,14.50
2016,07,26,03,02,14.50
2016,07,26,03,03,14.50
2016,07,26,03,04,14.50
2016,07,26,03,05,14.50
2016,07,26,03,06,14.50
2016,07,26,03,07,14.50
2016,07,26,03,08,14.50
2016,07,26,03,09,14.50
2016,07,26,03,10,14.50
2016,07,26,03,11,14.50
2016,07,26,03,12,14.50
2016,07,26,03,13,14.50
2016,07,26,03,14,14.50
2016,07,26,03,15,14.60
2016,07,26,03,16,14.50
2016,07,26,03,17,14.60
2016,07,26,03,18,14.60
2016,07,26,03,19,14.60
2016,07,26,03,20,14.60
2016,07,26,03,21,14.60
2016,07,26,03,22,14.60
2016,07,26,03,23,14.60
2016,07,26,03,24,14.60
2016,07,26,03,25,14.60
2016,07,26,03,26,14.60
2016,07,26,03,27,14.50
2016,07,26,03,28,14.50
2016,07,26,03,29,14.60
2016,07,26,03,30,14.60
2016,07,26,03,31,14.60
2016,07,26,03,32,14.50
2016,07,26,03,33,14.60
2016,07,26,03,34,14.60
2016,07,26,03,35,14.60
2016,07,26,03,36,14.60
2016,07,26,03,37,14.60
2016,07,26,03,38,14.60
2016,07,26,03,39,14.60
2016,07,26,03,40,14.60
2016,07,26,03,41,14.50
2016,07,26,03,42,14.60
2016,07,26,03,43,14.60
2016,07,26,03,44,14.50
2016,07,26,03,45,14.60
2016,07,26,03,46,14.50
2016,07,26,03,47,14.50
2016,07,26,03,48,14.60
2016,07,26,03,49,14.60
2016,07,26,03,50,14.60
2016,07,26,03,51,14.60
2016,07,26,03,52,14.60
2016,07,26,03,53,14.60
2016,07,26,03,54,14.60
2016,07,26,03,55,14.60
2016,07,26,03,56,14.60
2016,07,26,03,57,14.60
2016,07,26,03,58,14.60
2016,07,26,03,59,14.60
2016,07,26,04,00,14.70
2016,07,26,04,01,14.70
2016,07,26,04,02,14.70
2016,07,26,04,03,14.70
2016,07,26,04,04,14.70
2016,07,26,04,05,14.70
2016,07,26,04,06,14.70
2016,07,26,04,07,14.70
2016,07,26,04,08,14.70
2016,07,26,04,09,14.70
2016,07,26,04,10,14.70
2016,07,26,04,11,14.70
2016,07,26,04,12,14.70
2016,07,26,04,13,14.70
2016,07,26,04,14,14.70
2016,07,26,04,15,14.70
2016,07,26,04,16,14.70
2016,07,26,04,17,14.70
2016,07,26,04,18,14.70
2016,07,26,04,19,14.70
2016,07,26,04,20,14.70
2016,07,26,04,21,14.70
2016,07,26,04,22,14.70
2016,07,26,04,23,14.70
2016,07,26,04,24,14.70
2016,07,26,04,25,14.70
2016,07,26,04,26,14.70
2016,07,26,04,27,14.70
2016,07,26,04,28,14.60
2016,07,26,04,29,14.60
2016,07,26,04,30,14.60
2016,07,26,04,31,14.60
2016,07,26,04,32,14.60
2016,07,26,04,33,14.60
2016,07,26,04,34,14.60
2016,07,26,04,35,14.60
2016,07,26,04,36,14.60
2016,07,26,04,37,14.60
2016,07,26,04,38,14.60
2016,07,26,04,39,14.60
2016,07,26,04,40,14.60
2016,07,26,04,41,14.60
2016,07,26,04,42,14.50
2016,07,26,04,43,14.50
2016,07,26,04,44,14.50
2016,07,26,04,45,14.50
2016,07,26,04,46,14.50
2016,07,26,04,47,14.50
2016,07,26,04,48,14.50
2016,07,26,04,49,14.50
2016,07,26,04,50,14.50
2016,07,26,04,51,14.50
2016,07,26,04,52,14.50
2016,07,26,04,53,14.50
2016,07,26,04,54,14.50
2016,07,26,04,55,14.50
2016,07,26,04,56,14.50
2016,07,26,04,57,14.50
2016,07,26,04,58,14.50
2016,07,26,04,59,14.50
2016,07,26,05,00,14.50
2016,07,26,05,01,14.50
2016,07,26,05,02,14.50
2016,07,26,05,03,14.40
2016,07,26,05,04,14.40
2016,07,26,05,05,14.50
2016,07,26,05,06,14.50
2016,07,26,05,07,14.40
2016,07,26,05,08,14.40
2016,07,26,05,09,14.40
2016,07,26,05,10,14.40
2016,07,26,05,11,14.40
2016,07,26,05,12,14.40
2016,07,26,05,13,14.40
2016,07,26,05,14,14.40
2016,07,26,05,15,14.40
2016,07,26,05,16,14.40
2016,07,26,05,17,14.40
2016,07,26,05,18,14.40
2016,07,26,05,19,14.40
2016,07,26,05,20,14.40
2016,07,26,05,21,14.40
2016,07,26,05,22,14.40
2016,07,26,05,23,14.40
2016,07,26,05,24,14.40
2016,07,26,05,25,14.40
2016,07,26,05,26,14.40
2016,07,26,05,27,14.40
2016,07,26,05,28,14.40
2016,07,26,05,29,14.40
2016,07,26,05,30,14.40
2016,07,26,05,31,14.40
2016,07,26,05,32,14.40
2016,07,26,05,33,14.40
2016,07,26,05,34,14.40
2016,07,26,05,35,14.40
2016,07,26,05,36,14.40
2016,07,26,05,37,14.40
2016,07,26,05,38,14.40
2016,07,26,05,39,14.40
2016,07,26,05,40,14.40
2016,07,26,05,41,14.40
2016,07,26,05,42,14.40
2016,07,26,05,43,14.40
2016,07,26,05,44,14.40
2016,07,26,05,45,14.40
2016,07,26,05,46,14.40
2016,07,26,05,47,14.40
2016,07,26,05,48,14.40
2016,07,26,05,49,14.40
2016,07,26,05,50,14.40
2016,07,26,05,51,14.40
2016,07,26,05,52,14.40
2016,07,26,05,53,14.40
2016,07,26,05,54,14.40
2016,07,26,05,55,14.40
2016,07,26,05,56,14.40
2016,07,26,05,57,14.40
2016,07,26,05,58,14.40
2016,07,26,05,59,14.40
2016,07,26,06,00,14.40
2016,07,26,06,01,14.40
2016,07,26,06,02,14.40
2016,07,26,06,03,14.40
2016,07,26,06,04,14.40
2016,07,26,06,05,14.40
2016,07,26,06,06,14.40
2016,07,26,06,07,14.40
2016,07,26,06,08,14.30
2016,07,26,06,09,14.40
2016,07,26,06,10,14.30
2016,07,26,06,11,14.40
2016,07,26,06,12,14.40
2016,07,26,06,13,14.40
2016,07,26,06,14,14.40
2016,07,26,06,15,14.40
2016,07,26,06,16,14.40
2016,07,26,06,17,14.40
2016,07,26,06,18,14.40
2016,07,26,06,19,14.40
2016,07,26,06,20,14.40
2016,07,26,06,21,14.50
2016,07,26,06,22,14.50
2016,07,26,06,23,14.50
2016,07,26,06,24,14.50
2016,07,26,06,25,14.50
2016,07,26,06,26,14.50
2016,07,26,06,27,14.60
2016,07,26,06,28,14.60
2016,07,26,06,29,14.60
2016,07,26,06,30,14.60
2016,07,26,06,31,14.60
2016,07,26,06,32,14.60
2016,07,26,06,33,14.60
2016,07,26,06,34,14.60
2016,07,26,06,35,14.60
2016,07,26,06,36,14.60
2016,07,26,06,37,14.60
2016,07,26,06,38,14.60
2016,07,26,06,39,14.60
2016,07,26,06,40,14.60
2016,07,26,06,41,14.60
2016,07,26,06,42,14.60
2016,07,26,06,43,14.60
2016,07,26,06,44,14.60
2016,07,26,06,45,14.60
2016,07,26,06,46,14.70
2016,07,26,06,47,14.70
2016,07,26,06,48,14.70
2016,07,26,06,49,14.70
2016,07,26,06,50,14.70
2016,07,26,06,51,14.70
2016,07,26,06,52,14.70
2016,07,26,06,53,14.70
2016,07,26,06,54,14.70
2016,07,26,06,55,14.70
2016,07,26,06,56,14.70
2016,07,26,06,57,14.70
2016,07,26,06,58,14.70
2016,07,26,06,59,14.70
2016,07,26,07,00,14.70
2016,07,26,07,01,14.70
2016,07,26,07,02,14.70
2016,07,26,07,03,14.70
2016,07,26,07,04,14.70
2016,07,26,07,05,14.70
2016,07,26,07,06,14.70
2016,07,26,07,07,14.70
2016,07,26,07,08,14.70
2016,07,26,07,09,14.70
2016,07,26,07,10,14.70
2016,07,26,07,11,14.70
2016,07,26,07,12,14.60
2016,07,26,07,13,14.70
2016,07,26,07,14,14.60
2016,07,26,07,15,14.60
2016,07,26,07,16,14.70
2016,07,26,07,17,14.70
2016,07,26,07,18,14.70
2016,07,26,07,19,14.70
2016,07,26,07,20,14.70
2016,07,26,07,21,14.70
2016,07,26,07,22,14.70
2016,07,26,07,23,14.70
2016,07,26,07,24,14.70
2016,07,26,07,25,14.70
2016,07,26,07,26,14.70
2016,07,26,07,27,14.70
2016,07,26,07,28,14.70
2016,07,26,07,29,14.70
2016,07,26,07,30,14.70
2016,07,26,07,31,14.70
2016,07,26,07,32,14.70
2016,07,26,07,33,14.70
2016,07,26,07,34,14.80
2016,07,26,07,35,14.80
2016,07,26,07,36,14.80
2016,07,26,07,37,14.80
2016,07,26,07,38,14.80
2016,07,26,07,39,14.90
2016,07,26,07,40,14.90
2016,07,26,07,41,14.90
2016,07,26,07,42,15.00
2016,07,26,07,43,15.00
2016,07,26,07,44,15.00
2016,07,26,07,45,15.00
2016,07,26,07,46,15.10
2016,07,26,07,47,15.10
2016,07,26,07,48,15.10
2016,07,26,07,49,15.20
2016,07,26,07,50,15.20
2016,07,26,07,51,15.30
2016,07,26,07,52,15.30
2016,07,26,07,53,15.30
2016,07,26,07,54,15.30
2016,07,26,07,55,15.30
2016,07,26,07,56,15.40
2016,07,26,07,57,15.50
2016,07,26,07,58,15.50
2016,07,26,07,59,15.60
2016,07,26,08,00,15.60
2016,07,26,08,01,15.70
2016,07,26,08,02,15.80
2016,07,26,08,03,15.80
2016,07,26,08,04,15.80
2016,07,26,08,05,15.90
2016,07,26,08,06,16.00
2016,07,26,08,07,16.10
2016,07,26,08,08,16.10
2016,07,26,08,09,16.20
2016,07,26,08,10,16.20
2016,07,26,08,11,16.30
2016,07,26,08,12,16.30
2016,07,26,08,13,16.40
2016,07,26,08,14,16.50
2016,07,26,08,15,16.50
2016,07,26,08,16,16.60
2016,07,26,08,17,16.60
2016,07,26,08,18,16.70
2016,07,26,08,19,16.80
2016,07,26,08,20,16.90
2016,07,26,08,21,16.90
2016,07,26,08,22,17.00
2016,07,26,08,23,17.10
2016,07,26,08,24,17.10
2016,07,26,08,25,17.20
2016,07,26,08,26,17.20
2016,07,26,08,27,17.30
2016,07,26,08,28,17.30
2016,07,26,08,29,17.30
2016,07,26,08,30,17.40
2016,07,26,08,31,17.40
2016,07,26,08,32,17.40
2016,07,26,08,33,17.40
2016,07,26,08,34,17.40
2016,07,26,08,35,17.40
2016,07,26,08,36,17.40
2016,07,26,08,37,17.40
2016,07,26,08,38,17.30
2016,07,26,08,39,17.30
2016,07,26,08,40,17.30
2016,07,26,08,41,17.30
2016,07,26,08,42,17.30
2016,07,26,08,43,17.30
2016,07,26,08,44,17.30
2016,07,26,08,45,17.30
2016,07,26,08,46,17.30
2016,07,26,08,47,17.30
2016,07,26,08,48,17.30
2016,07,26,08,49,17.30
2016,07,26,08,50,17.30
2016,07,26,08,51,17.30
2016,07,26,08,52,17.30
2016,07,26,08,53,17.20
2016,07,26,08,54,17.20
2016,07,26,08,55,17.20
2016,07,26,08,56,17.20
2016,07,26,08,57,17.30
2016,07,26,08,58,17.30
2016,07,26,08,59,17.30
2016,07,26,09,00,17.30
2016,07,26,09,01,17.30
2016,07,26,09,02,17.30
2016,07,26,09,03,17.30
2016,07,26,09,04,17.40
2016,07,26,09,05,17.40
2016,07,26,09,06,17.40
2016,07,26,09,07,17.50
2016,07,26,09,08,17.50
2016,07,26,09,09,17.50
2016,07,26,09,10,17.60
2016,07,26,09,11,17.60
2016,07,26,09,12,17.60
2016,07,26,09,13,17.70
2016,07,26,09,14,17.70
2016,07,26,09,15,17.70
2016,07,26,09,16,17.80
2016,07,26,09,17,17.90
2016,07,26,09,18,17.90
2016,07,26,09,19,18.00
2016,07,26,09,20,18.10
2016,07,26,09,21,18.20
2016,07,26,09,22,18.20
2016,07,26,09,23,18.30
2016,07,26,09,24,18.30
2016,07,26,09,25,18.40
2016,07,26,09,26,18.40
2016,07,26,09,27,18.50
2016,07,26,09,28,18.60
2016,07,26,09,29,18.70
2016,07,26,09,30,18.70
2016,07,26,09,31,18.80
2016,07,26,09,32,18.80
2016,07,26,09,33,18.90
2016,07,26,09,34,18.90
2016,07,26,09,35,18.90
2016,07,26,09,36,19.00
2016,07,26,09,37,19.10
2016,07,26,09,38,19.20
2016,07,26,09,39,19.20
2016,07,26,09,40,19.20
2016,07,26,09,41,19.20
2016,07,26,09,42,19.30
2016,07,26,09,43,19.40
2016,07,26,09,44,19.50
2016,07,26,09,45,19.50
2016,07,26,09,46,19.60
2016,07,26,09,47,19.60
2016,07,26,09,48,19.60
2016,07,26,09,49,19.70
2016,07,26,09,50,19.70
2016,07,26,09,51,19.70
2016,07,26,09,52,19.70
2016,07,26,09,53,19.70
2016,07,26,09,54,19.80
2016,07,26,09,55,19.80
2016,07,26,09,56,19.80
2016,07,26,09,57,19.80
2016,07,26,09,58,19.80
2016,07,26,09,59,19.80
2016,07,26,10,00,19.80
2016,07,26,10,01,19.80
2016,07,26,10,02,19.80
2016,07,26,10,03,19.80
2016,07,26,10,04,19.80
2016,07,26,10,05,19.80
2016,07,26,10,06,19.80
2016,07,26,10,07,19.80
2016,07,26,10,08,19.80
2016,07,26,10,09,19.80
2016,07,26,10,10,19.80
2016,07,26,10,11,19.70
2016,07,26,10,12,19.70
2016,07,26,10,13,19.60
2016,07,26,10,14,19.60
2016,07,26,10,15,19.60
2016,07,26,10,16,19.60
2016,07,26,10,17,19.60
2016,07,26,10,18,19.60
2016,07,26,10,19,19.60
2016,07,26,10,20,19.60
2016,07,26,10,21,19.60
2016,07,26,10,22,19.50
2016,07,26,10,23,19.50
2016,07,26,10,24,19.40
2016,07,26,10,25,19.50
2016,07,26,10,26,19.50
2016,07,26,10,27,19.50
2016,07,26,10,28,19.50
2016,07,26,10,29,19.50
2016,07,26,10,30,19.50
2016,07,26,10,31,19.50
2016,07,26,10,32,19.40
2016,07,26,10,33,19.40
2016,07,26,10,34,19.40
2016,07,26,10,35,19.50
2016,07,26,10,36,19.50
2016,07,26,10,37,19.50
2016,07,26,10,38,19.40
2016,07,26,10,39,19.30
2016,07,26,10,40,19.30
2016,07,26,10,41,19.30
2016,07,26,10,42,19.30
2016,07,26,10,43,19.40
2016,07,26,10,44,19.40
2016,07,26,10,45,19.40
2016,07,26,10,46,19.40
2016,07,26,10,47,19.40
2016,07,26,10,48,19.40
2016,07,26,10,49,19.40
2016,07,26,10,50,19.40
2016,07,26,10,51,19.40
2016,07,26,10,52,19.50
2016,07,26,10,53,19.60
2016,07,26,10,54,19.60
2016,07,26,10,55,19.70
2016,07,26,10,56,19.70
2016,07,26,10,57,19.80
2016,07,26,10,58,19.90
2016,07,26,10,59,19.90
2016,07,26,11,00,19.90
2016,07,26,11,01,19.90
2016,07,26,11,02,19.90
2016,07,26,11,03,20.00
2016,07,26,11,04,20.00
2016,07,26,11,05,20.10
2016,07,26,11,06,20.10
2016,07,26,11,07,20.10
2016,07,26,11,08,20.20
2016,07,26,11,09,20.20
2016,07,26,11,10,20.30
2016,07,26,11,11,20.40
2016,07,26,11,12,20.50
2016,07,26,11,13,20.60
2016,07,26,11,14,20.60
2016,07,26,11,15,20.70
2016,07,26,11,16,20.60
2016,07,26,11,17,20.70
2016,07,26,11,18,20.70
2016,07,26,11,19,20.70
2016,07,26,11,20,20.80
2016,07,26,11,21,20.70
2016,07,26,11,22,20.80
2016,07,26,11,23,20.70
2016,07,26,11,24,20.60
2016,07,26,11,25,20.50
2016,07,26,11,26,20.50
2016,07,26,11,27,20.40
2016,07,26,11,28,20.40
2016,07,26,11,29,20.30
2016,07,26,11,30,20.30
2016,07,26,11,31,20.20
2016,07,26,11,32,20.10
2016,07,26,11,33,20.10
2016,07,26,11,34,20.00
2016,07,26,11,35,20.10
2016,07,26,11,36,20.20
2016,07,26,11,37,20.20
2016,07,26,11,38,20.20
2016,07,26,11,39,20.30
2016,07,26,11,40,20.30
2016,07,26,11,41,20.40
2016,07,26,11,42,20.30
2016,07,26,11,43,20.30
2016,07,26,11,44,20.30
2016,07,26,11,45,20.30
2016,07,26,11,46,20.40
2016,07,26,11,47,20.40
2016,07,26,11,48,20.40
2016,07,26,11,49,20.50
2016,07,26,11,50,20.50
2016,07,26,11,51,20.60
2016,07,26,11,52,20.50
2016,07,26,11,53,20.50
2016,07,26,11,54,20.40
2016,07,26,11,55,20.40
2016,07,26,11,56,20.40
2016,07,26,11,57,20.40
2016,07,26,11,58,20.40
2016,07,26,11,59,20.40
2016,07,26,12,00,20.40
2016,07,26,12,01,20.40
2016,07,26,12,02,20.50
2016,07,26,12,03,20.60
2016,07,26,12,04,20.70
2016,07,26,12,05,20.80
2016,07,26,12,06,20.70
2016,07,26,12,07,20.60
2016,07,26,12,08,20.50
2016,07,26,12,09,20.50
2016,07,26,12,10,20.40
2016,07,26,12,11,20.40
2016,07,26,12,12,20.40
2016,07,26,12,13,20.40
2016,07,26,12,14,20.50
2016,07,26,12,15,20.60
2016,07,26,12,16,20.60
2016,07,26,12,17,20.60
2016,07,26,12,18,20.60
2016,07,26,12,19,20.60
2016,07,26,12,20,20.60
2016,07,26,12,21,20.40
2016,07,26,12,22,20.30
2016,07,26,12,23,20.40
2016,07,26,12,24,20.30
2016,07,26,12,25,20.30
2016,07,26,12,26,20.30
2016,07,26,12,27,20.30
2016,07,26,12,28,20.30
2016,07,26,12,29,20.30
2016,07,26,12,30,20.40
2016,07,26,12,31,20.40
2016,07,26,12,32,20.40
2016,07,26,12,33,20.40
2016,07,26,12,34,20.40
2016,07,26,12,35,20.40
2016,07,26,12,36,20.40
2016,07,26,12,37,20.50
2016,07,26,12,38,20.50
2016,07,26,12,39,20.60
2016,07,26,12,40,20.60
2016,07,26,12,41,20.60
2016,07,26,12,42,20.50
2016,07,26,12,43,20.40
2016,07,26,12,44,20.30
2016,07,26,12,45,20.40
2016,07,26,12,46,20.50
2016,07,26,12,47,20.50
2016,07,26,12,48,20.50
2016,07,26,12,49,20.60
2016,07,26,12,50,20.60
2016,07,26,12,51,20.50
2016,07,26,12,52,20.50
2016,07,26,12,53,20.50
2016,07,26,12,54,20.50
2016,07,26,12,55,20.60
2016,07,26,12,56,20.60
2016,07,26,12,57,20.60
2016,07,26,12,58,20.60
2016,07,26,12,59,20.70
2016,07,26,13,00,20.70
2016,07,26,13,01,20.70
2016,07,26,13,02,20.80
2016,07,26,13,03,20.80
2016,07,26,13,04,20.90
2016,07,26,13,05,20.90
2016,07,26,13,06,21.00
2016,07,26,13,07,21.00
2016,07,26,13,08,21.00
2016,07,26,13,09,20.90
2016,07,26,13,10,20.90
2016,07,26,13,11,20.80
2016,07,26,13,12,20.90
2016,07,26,13,13,21.10
2016,07,26,13,14,21.20
2016,07,26,13,15,21.20
2016,07,26,13,16,21.20
2016,07,26,13,17,21.20
2016,07,26,13,18,21.20
2016,07,26,13,19,21.20
2016,07,26,13,20,21.20
2016,07,26,13,21,21.20
2016,07,26,13,22,21.20
2016,07,26,13,23,21.20
2016,07,26,13,24,21.20
2016,07,26,13,25,21.30
2016,07,26,13,26,21.30
2016,07,26,13,27,21.30
2016,07,26,13,28,21.30
2016,07,26,13,29,21.30
2016,07,26,13,30,21.30
2016,07,26,13,31,21.40
2016,07,26,13,32,21.40
2016,07,26,13,33,21.40
2016,07,26,13,34,21.50
2016,07,26,13,35,21.50
2016,07,26,13,36,21.50
2016,07,26,13,37,21.50
2016,07,26,13,38,21.50
2016,07,26,13,39,21.60
2016,07,26,13,40,21.60
2016,07,26,13,41,21.50
2016,07,26,13,42,21.40
2016,07,26,13,43,21.40
2016,07,26,13,44,21.40
2016,07,26,13,45,21.40
2016,07,26,13,46,21.40
2016,07,26,13,47,21.50
2016,07,26,13,48,21.60
2016,07,26,13,49,21.70
2016,07,26,13,50,21.80
2016,07,26,13,51,21.90
2016,07,26,13,52,22.00
2016,07,26,13,53,22.10
2016,07,26,13,54,22.10
2016,07,26,13,55,22.20
2016,07,26,13,56,22.20
2016,07,26,13,57,22.30
2016,07,26,13,58,22.30
2016,07,26,13,59,22.30
2016,07,26,14,00,22.30
2016,07,26,14,01,22.40
2016,07,26,14,02,22.40
2016,07,26,14,03,22.30
2016,07,26,14,04,22.30
2016,07,26,14,05,22.30
2016,07,26,14,06,22.50
2016,07,26,14,07,22.50
2016,07,26,14,08,22.50
2016,07,26,14,09,22.40
2016,07,26,14,10,22.40
2016,07,26,14,11,22.50
2016,07,26,14,12,22.50
2016,07,26,14,13,22.50
2016,07,26,14,14,22.60
2016,07,26,14,15,22.50
2016,07,26,14,16,22.40
2016,07,26,14,17,22.30
2016,07,26,14,18,22.30
2016,07,26,14,19,22.30
2016,07,26,14,20,22.20
2016,07,26,14,21,22.20
2016,07,26,14,22,22.20
2016,07,26,14,23,22.20
2016,07,26,14,24,22.20
2016,07,26,14,25,22.10
2016,07,26,14,26,22.00
2016,07,26,14,27,21.90
2016,07,26,14,28,21.80
2016,07,26,14,29,21.90
2016,07,26,14,30,21.80
2016,07,26,14,31,21.70
2016,07,26,14,32,21.80
2016,07,26,14,33,21.80
2016,07,26,14,34,21.80
2016,07,26,14,35,21.90
2016,07,26,14,36,22.00
2016,07,26,14,37,22.00
2016,07,26,14,38,21.90
2016,07,26,14,39,21.80
2016,07,26,14,40,21.70
2016,07,26,14,41,21.80
2016,07,26,14,42,21.70
2016,07,26,14,43,21.70
2016,07,26,14,44,21.80
2016,07,26,14,45,21.70
2016,07,26,14,46,21.70
2016,07,26,14,47,21.80
2016,07,26,14,48,21.90
2016,07,26,14,49,21.90
2016,07,26,14,50,21.90
2016,07,26,14,51,21.80
2016,07,26,14,52,21.80
2016,07,26,14,53,21.70
2016,07,26,14,54,21.70
2016,07,26,14,55,21.80
2016,07,26,14,56,21.90
2016,07,26,14,57,21.90
2016,07,26,14,58,21.90
2016,07,26,14,59,21.90
2016,07,26,15,00,21.70
2016,07,26,15,01,21.60
2016,07,26,15,02,21.60
2016,07,26,15,03,21.50
2016,07,26,15,04,21.40
2016,07,26,15,05,21.30
2016,07,26,15,06,21.30
2016,07,26,15,07,21.20
2016,07,26,15,08,21.10
2016,07,26,15,09,21.10
2016,07,26,15,10,21.10
2016,07,26,15,11,21.20
2016,07,26,15,12,21.10
2016,07,26,15,13,21.00
2016,07,26,15,14,21.00
2016,07,26,15,15,21.00
2016,07,26,15,16,21.10
2016,07,26,15,17,21.10
2016,07,26,15,18,21.00
2016,07,26,15,19,21.00
2016,07,26,15,20,21.00
2016,07,26,15,21,21.00
2016,07,26,15,22,21.00
2016,07,26,15,23,21.00
2016,07,26,15,24,21.00
2016,07,26,15,25,21.10
2016,07,26,15,26,21.10
2016,07,26,15,27,21.10
2016,07,26,15,28,21.20
2016,07,26,15,29,21.20
2016,07,26,15,30,21.20
2016,07,26,15,31,21.20
2016,07,26,15,32,21.20
2016,07,26,15,33,21.30
2016,07,26,15,34,21.40
2016,07,26,15,35,21.40
2016,07,26,15,36,21.30
2016,07,26,15,37,21.40
2016,07,26,15,38,21.40
2016,07,26,15,39,21.40
2016,07,26,15,40,21.40
2016,07,26,15,41,21.40
2016,07,26,15,42,21.30
2016,07,26,15,43,21.30
2016,07,26,15,44,21.30
2016,07,26,15,45,21.30
2016,07,26,15,46,21.30
2016,07,26,15,47,21.30
2016,07,26,15,48,21.20
2016,07,26,15,49,21.10
2016,07,26,15,50,21.10
2016,07,26,15,51,21.00
2016,07,26,15,52,21.00
2016,07,26,15,53,20.90
2016,07,26,15,54,20.90
2016,07,26,15,55,20.90
2016,07,26,15,56,20.90
2016,07,26,15,57,21.00
2016,07,26,15,58,21.00
2016,07,26,15,59,21.10
2016,07,26,16,00,21.10
2016,07,26,16,01,21.10
2016,07,26,16,02,21.10
2016,07,26,16,03,21.20
2016,07,26,16,04,21.10
2016,07,26,16,05,21.00
2016,07,26,16,06,20.80
2016,07,26,16,07,20.70
2016,07,26,16,08,20.60
2016,07,26,16,09,20.50
2016,07,26,16,10,20.40
2016,07,26,16,11,20.30
2016,07,26,16,12,20.40
2016,07,26,16,13,20.50
2016,07,26,16,14,20.60
2016,07,26,16,15,20.60
2016,07,26,16,16,20.70
2016,07,26,16,17,20.80
2016,07,26,16,18,20.80
2016,07,26,16,19,20.70
2016,07,26,16,20,20.70
2016,07,26,16,21,20.60
2016,07,26,16,22,20.60
2016,07,26,16,23,20.60
2016,07,26,16,24,20.70
2016,07,26,16,25,20.70
2016,07,26,16,26,20.70
2016,07,26,16,27,20.70
2016,07,26,16,28,20.70
2016,07,26,16,29,20.80
2016,07,26,16,30,20.90
2016,07,26,16,31,21.00
2016,07,26,16,32,21.20
2016,07,26,16,33,21.30
2016,07,26,16,34,21.40
2016,07,26,16,35,21.50
2016,07,26,16,36,21.60
2016,07,26,16,37,21.60
2016,07,26,16,38,21.70
2016,07,26,16,39,21.80
2016,07,26,16,40,21.80
2016,07,26,16,41,21.90
2016,07,26,16,42,21.90
2016,07,26,16,43,22.00
2016,07,26,16,44,22.00
2016,07,26,16,45,21.90
2016,07,26,16,46,21.90
2016,07,26,16,47,21.80
2016,07,26,16,48,21.70
2016,07,26,16,49,21.80
2016,07,26,16,50,21.80
2016,07,26,16,51,21.80
2016,07,26,16,52,21.80
2016,07,26,16,53,21.80
2016,07,26,16,54,21.80
2016,07,26,16,55,21.80
2016,07,26,16,56,21.80
2016,07,26,16,57,21.80
2016,07,26,16,58,21.80
2016,07,26,16,59,21.80
2016,07,26,17,00,21.80
2016,07,26,17,01,21.80
2016,07,26,17,02,21.80
2016,07,26,17,03,21.80
2016,07,26,17,04,21.80
2016,07,26,17,05,21.80
2016,07,26,17,06,21.80
2016,07,26,17,07,21.90
2016,07,26,17,08,21.90
2016,07,26,17,09,21.90
2016,07,26,17,10,22.00
2016,07,26,17,11,22.10
2016,07,26,17,12,22.20
2016,07,26,17,13,22.10
2016,07,26,17,14,22.10
2016,07,26,17,15,22.10
2016,07,26,17,16,22.20
2016,07,26,17,17,22.20
2016,07,26,17,18,22.30
2016,07,26,17,19,22.30